Valley International Airport Harlingen US
ICAO: KHRL
IATA: HRL
Category: Medium
Scheduled Services: Yes

Elevation: 36 ft
TransAlt. 18000 ft.

Airport Communications:
APP/DEP:120.7
ATIS:124.85
CTAF:119.3
GND:121.7
SAN ANGELO RDO:122.35
TWR:119.3
UNICOM:122.95

KHRL Zoom In..

Runways:

(A) RW 13 length 7257 ft width 150 ft
---- / hdg 131

(B) RW 17L length 5949 ft width 150 ft
---- / hdg 176

(C) RW 17R length 8301 ft width 150 ft
ILS 111.50 / hdg 176

(D) RW 31 length 7257 ft width 150 ft
---- / hdg 311

(E) RW 35L length 8301 ft width 150 ft
---- / hdg 356

(F) RW 35R length 5949 ft width 150 ft
---- / hdg 356

Location; KHRL
Day. 25 / Time. 09.52 Zulu
* Altimeter: 29.98
* Temperature: 18° c. 64.4°f.
* Wind from: 110° Speed 06 kn.
Dewpoint: 17° c.
Visibility: 10 Statute Miles.
Clouds: Clear (automated report).

KHRL 250952Z AUTO 11006KT 10SM CLR 18/17 A2998 RMK AO2 SLP153 T01780172


Wind From 110°
Speed 06 kn.

  YouTube Music Video
 
jpsmedia.com for Web Design  worldairports.se 2018   terms of use